This demonstration page uses our WeatherBlox Daily Observations layout. Learn more.

Left ArrowRight Arrow

38.89511, -77.03637

Hourly Observations for July 7, 2015

Temp ( °F °C ) Dew Point ( °F °C ) Humidity (%) Winds ( mph kmh ) Pressure ( in mb ) Visibility ( mi km ) Precip ( " mm )
12:52 am 00:52 Partly Cloudy 77 25 71 21.7 82 82 S 9 15 30.03 1017 10 16 N/A
1:52 am 01:52 Partly Cloudy 76 24.4 71 21.7 85 85 SSW 7 11 30.02 1017 10 16 N/A
2:31 am 02:31 Mostly Cloudy 75 24 72 22 89 89 S 6 9 30.03 1017 10 16 N/A
2:52 am 02:52 Mostly Cloudy 76 24.4 72 22.2 88 88 S 6 9 30.03 1017 10 16 N/A
2:54 am 02:54 Mostly Cloudy 75 24 72 22 89 89 S 6 9 30.03 1017 10 16 N/A
3:52 am 03:52 Mostly Cloudy 76 24.4 71 21.7 85 85 S 7 11 30.03 1017 10 16 N/A
3:56 am 03:56 Mostly Cloudy 75 24 72 22 89 89 SSW 6 9 30.03 1017 10 16 N/A
4:32 am 04:32 Partly Cloudy 75 24 72 22 89 89 S 6 9 30.03 1017 10 16 N/A
4:52 am 04:52 Mostly Clear 75 23.9 71 21.7 88 88 S 6 9 30.02 1017 10 16 N/A
5:52 am 05:52 Partly Cloudy 75 23.9 71 21.7 88 88 N N/A 30.03 1017 10 16 N/A
5:54 am 05:54 Partly Cloudy 75 24 72 22 89 89 N N/A 30.03 1017 10 16 N/A
6:52 am 06:52 Partly Cloudy 76 24.4 71 21.7 85 85 SSW 5 7 30.04 1017 10 16 N/A
7:23 am 07:23 Mostly Cloudy 77 25 72 22 83 83 SW 7 11 30.06 1018 10 16 N/A
7:52 am 07:52 Mostly Cloudy 77 25 71 21.7 82 82 WSW 7 11 30.07 1018 10 16 N/A
8:13 am 08:13 Partly Cloudy 79 26 72 22 79 79 SW 5 7 30.06 1018 10 16 N/A
8:52 am 08:52 Partly Cloudy 81 27.2 72 22.2 74 74 WSW 5 7 30.07 1018 10 16 N/A
9:52 am 09:52 Partly Cloudy 81 27.2 73 22.8 77 77 S 9 15 30.06 1018 10 16 N/A
10:52 am 10:52 Mostly Sunny 83 28.3 74 23.3 74 74 S 8 13 30.06 1018 10 16 N/A
11:52 am 11:52 Partly Cloudy 87 30.6 74 23.3 65 65 SSE 7 11 30.04 1017 10 16 N/A
12:52 pm 12:52 Partly Cloudy 86 30 74 23.3 67 67 S 13 20 30.03 1017 10 16 N/A
1:52 pm 13:52 Partly Cloudy 87 30.6 72 22.2 61 61 S 9 15 30.03 1017 10 16 N/A
2:52 pm 14:52 Partly Cloudy 91 32.8 72 22.2 54 54 S 9 15 30.01 1016 10 16 N/A
3:52 pm 15:52 Partly Cloudy 91 32.8 67 19.4 45 45 SW 10 17 30.00 1016 10 16 N/A
4:52 pm 16:52 Mostly Sunny 90 32.2 67 19.4 47 47 SSW 13 20 29.99 1016 10 16 N/A
5:52 pm 17:52 Partly Cloudy 90 32.2 67 19.4 47 47 SSW 14 22 29.98 1015 9 14 N/A
6:52 pm 18:52 Mostly Sunny 89 31.7 69 20.6 52 52 SW 12 19 29.98 1015 9 14 N/A
7:52 pm 19:52 Partly Cloudy 86 30 72 22.2 63 63 S 9 15 29.98 1015 8 13 N/A
8:52 pm 20:52 Partly Cloudy 83 28.3 73 22.8 72 72 S 8 13 29.99 1016 10 16 N/A
9:52 pm 21:52 Partly Cloudy 83 28.3 74 23.3 74 74 S 10 17 30.01 1016 9 14 N/A
10:52 pm 22:52 Mostly Cloudy 82 27.8 73 22.8 74 74 S 9 15 30.01 1016 9 14 N/A
11:52 pm 23:52 Mostly Cloudy 81 27.2 72 22.2 74 74 S 9 15 30.01 1016 9 14 N/A

Powered by AerisWeather